• In Uzbekistan
  • List of Countries
  • For 7 days
  • Water Temperature
  • Satellite Maps
  • Weather Map
  • Weather Widgets
  • user-avatar
    Login

    Hourly Weather Frontera Comalapa

    Today, 21 February, Wednesday

    Time Temperature Precipitation Wind Pressure Humidity
    00:00 +22°C° 0 mm 1 mps 702 mmHg 75%
    01:00 +22°C° 0 mm 1 mps 702 mmHg 75%
    02:00 +21°C° 0 mm 1 mps 702 mmHg 76%
    03:00 +21°C° 0 mm 1 mps 702 mmHg 76%
    04:00 +21°C° 0 mm 1 mps 702 mmHg 76%
    05:00 +21°C° 0 mm 1 mps 702 mmHg 77%
    06:00 +21°C° 0 mm 1 mps 702 mmHg 77%
    07:00 +23°C° 0 mm 1 mps 703 mmHg 69%
    08:00 +26°C° 0 mm 1 mps 703 mmHg 61%
    09:00 +28°C° 0 mm 1 mps 704 mmHg 53%
    10:00 +30°C° 0 mm 1 mps 704 mmHg 48%
    11:00 +32°C° 0 mm 1 mps 704 mmHg 42%
    12:00 +34°C° 0 mm 1 mps 704 mmHg 36%
    13:00 +34°C° 0 mm 2 mps 704 mmHg 39%
    14:00 +34°C° 0 mm 2 mps 703 mmHg 41%
    15:00 +32°C° 0 mm 2 mps 702 mmHg 43%
    16:00 +31°C° 0.1 mm 2 mps 702 mmHg 49%
    17:00 +29°C° 0.1 mm 2 mps 702 mmHg 54%
    18:00 +27°C° 0.1 mm 2 mps 702 mmHg 60%
    19:00 +26°C° 0.1 mm 2 mps 702 mmHg 65%
    20:00 +25°C° 0.1 mm 2 mps 703 mmHg 69%
    21:00 +24°C° 0.1 mm 2 mps 703 mmHg 74%
    22:00 +23°C° 0 mm 2 mps 703 mmHg 75%
    23:00 +23°C° 0 mm 1 mps 703 mmHg 77%

    Tomorrow, 22 February, Thursday

    Time Temperature Precipitation Wind Pressure Humidity
    00:00 +22°C° 0 mm 1 mps 703 mmHg 78%
    01:00 +22°C° 0 mm 1 mps 703 mmHg 79%
    02:00 +22°C° 0 mm 1 mps 703 mmHg 79%
    03:00 +21°C° 0 mm 1 mps 703 mmHg 80%
    04:00 +21°C° 0 mm 1 mps 703 mmHg 79%
    05:00 +21°C° 0 mm 1 mps 703 mmHg 79%
    06:00 +20°C° 0 mm 1 mps 703 mmHg 79%
    07:00 +23°C° 0 mm 1 mps 703 mmHg 68%
    08:00 +26°C° 0 mm 1 mps 704 mmHg 58%
    09:00 +28°C° 0 mm 1 mps 705 mmHg 48%
    10:00 +30°C° 0 mm 1 mps 705 mmHg 43%
    11:00 +32°C° 0 mm 2 mps 705 mmHg 39%
    12:00 +35°C° 0 mm 2 mps 705 mmHg 34%
    13:00 +34°C° 0.1 mm 2 mps 704 mmHg 37%
    14:00 +34°C° 0.1 mm 2 mps 703 mmHg 39%
    15:00 +33°C° 0.1 mm 3 mps 702 mmHg 42%
    16:00 +31°C° 0.2 mm 3 mps 702 mmHg 48%
    17:00 +29°C° 0.2 mm 2 mps 702 mmHg 55%
    18:00 +27°C° 0.2 mm 2 mps 702 mmHg 61%
    19:00 +26°C° 0 mm 2 mps 702 mmHg 66%
    20:00 +24°C° 0 mm 2 mps 703 mmHg 70%
    21:00 +23°C° 0 mm 2 mps 703 mmHg 75%
    22:00 +21°C° 0 mm 2 mps 704 mmHg 74%
    23:00 +21°C° 0 mm 2 mps 704 mmHg 74%

    Day after tomorrow, 23 February, Friday

    Time Temperature Precipitation Wind Pressure Humidity
    00:00 +20°C° 0 mm 2 mps 704 mmHg 73%
    01:00 +21°C° 0 mm 1 mps 703 mmHg 73%
    02:00 +21°C° 0 mm 1 mps 703 mmHg 73%
    03:00 +20°C° 0 mm 1 mps 703 mmHg 73%
    04:00 +19°C° 0 mm 2 mps 703 mmHg 73%
    05:00 +19°C° 0 mm 2 mps 703 mmHg 72%
    06:00 +19°C° 0 mm 2 mps 703 mmHg 72%
    07:00 +22°C° 0 mm 1 mps 703 mmHg 63%
    08:00 +25°C° 0 mm 1 mps 704 mmHg 54%
    09:00 +28°C° 0 mm 1 mps 705 mmHg 45%
    10:00 +30°C° 0 mm 1 mps 705 mmHg 39%
    11:00 +32°C° 0 mm 2 mps 704 mmHg 34%
    12:00 +35°C° 0 mm 2 mps 704 mmHg 29%
    13:00 +35°C° 0 mm 2 mps 703 mmHg 31%
    14:00 +35°C° 0 mm 2 mps 703 mmHg 33%
    15:00 +34°C° 0 mm 2 mps 702 mmHg 34%
    16:00 +31°C° 0 mm 2 mps 702 mmHg 41%
    17:00 +29°C° 0 mm 2 mps 701 mmHg 49%
    18:00 +27°C° 0 mm 2 mps 701 mmHg 56%
    19:00 +26°C° 0 mm 2 mps 702 mmHg 61%
    20:00 +24°C° 0 mm 2 mps 702 mmHg 67%
    21:00 +23°C° 0 mm 2 mps 703 mmHg 73%
    22:00 +23°C° 0 mm 2 mps 703 mmHg 73%
    23:00 +22°C° 0 mm 1 mps 702 mmHg 73%

    24 February, Saturday

    Time Temperature Precipitation Wind Pressure Humidity
    00:00 +22°C° 0 mm 1 mps 702 mmHg 73%
    01:00 +21°C° 0 mm 1 mps 702 mmHg 73%
    02:00 +21°C° 0 mm 1 mps 701 mmHg 73%
    03:00 +21°C° 0 mm 1 mps 701 mmHg 74%
    04:00 +21°C° 0 mm 1 mps 701 mmHg 74%
    05:00 +20°C° 0 mm 1 mps 701 mmHg 74%
    06:00 +20°C° 0 mm 1 mps 701 mmHg 74%
    07:00 +23°C° 0 mm 1 mps 702 mmHg 65%
    08:00 +26°C° 0 mm 1 mps 703 mmHg 56%
    09:00 +29°C° 0 mm 1 mps 704 mmHg 47%
    10:00 +30°C° 0 mm 1 mps 703 mmHg 43%
    11:00 +32°C° 0 mm 1 mps 703 mmHg 39%
    12:00 +34°C° 0 mm 1 mps 703 mmHg 35%
    13:00 +33°C° 0.1 mm 1 mps 702 mmHg 38%
    14:00 +32°C° 0.1 mm 2 mps 701 mmHg 41%
    15:00 +32°C° 0.1 mm 2 mps 700 mmHg 44%
    16:00 +30°C° 0.5 mm 1 mps 700 mmHg 50%
    17:00 +29°C° 0.5 mm 1 mps 700 mmHg 56%
    18:00 +27°C° 0.5 mm 1 mps 700 mmHg 61%
    19:00 +26°C° 0.3 mm 1 mps 701 mmHg 65%
    20:00 +25°C° 0.3 mm 1 mps 701 mmHg 69%
    21:00 +24°C° 0.3 mm 1 mps 702 mmHg 73%
    22:00 +23°C° 0 mm 1 mps 702 mmHg 73%
    23:00 +23°C° 0 mm 1 mps 702 mmHg 73%

    25 February, Sunday

    Time Temperature Precipitation Wind Pressure Humidity
    00:00 +22°C° 0 mm 1 mps 701 mmHg 73%
    01:00 +22°C° 0 mm 1 mps 701 mmHg 73%
    02:00 +22°C° 0 mm 1 mps 701 mmHg 72%
    03:00 +21°C° 0 mm 1 mps 700 mmHg 72%
    04:00 +21°C° 0 mm 1 mps 700 mmHg 72%
    05:00 +21°C° 0 mm 1 mps 701 mmHg 72%
    06:00 +21°C° 0 mm 1 mps 701 mmHg 72%
    07:00 +23°C° 0 mm 1 mps 702 mmHg 65%
    08:00 +24°C° 0 mm 0 mps 702 mmHg 57%
    09:00 +26°C° 0 mm 0 mps 703 mmHg 50%
    10:00 +30°C° 0 mm 1 mps 703 mmHg 47%
    11:00 +31°C° 0 mm 1 mps 703 mmHg 44%
    12:00 +32°C° 0 mm 2 mps 702 mmHg 41%
    13:00 +32°C° 0.1 mm 2 mps 702 mmHg 40%
    14:00 +32°C° 0.1 mm 2 mps 701 mmHg 40%
    15:00 +32°C° 0.1 mm 2 mps 700 mmHg 40%
    16:00 +31°C° 0.1 mm 1 mps 701 mmHg 45%
    17:00 +29°C° 0.1 mm 1 mps 701 mmHg 50%
    18:00 +28°C° 0.1 mm 1 mps 701 mmHg 55%
    19:00 +26°C° 0 mm 1 mps 701 mmHg 59%
    20:00 +25°C° 0 mm 1 mps 702 mmHg 63%
    21:00 +24°C° 0 mm 1 mps 702 mmHg 67%
    22:00 +23°C° 0 mm 1 mps 702 mmHg 68%
    23:00 +22°C° 0 mm 1 mps 702 mmHg 69%

    26 February, Monday

    Time Temperature Precipitation Wind Pressure Humidity
    00:00 +22°C° 0 mm 1 mps 702 mmHg 69%
    01:00 +21°C° 0 mm 1 mps 702 mmHg 70%
    02:00 +21°C° 0 mm 1 mps 701 mmHg 70%
    03:00 +21°C° 0 mm 1 mps 701 mmHg 70%
    04:00 +20°C° 0 mm 1 mps 701 mmHg 70%
    05:00 +20°C° 0 mm 1 mps 701 mmHg 70%
    06:00 +20°C° 0 mm 1 mps 702 mmHg 70%
    07:00 +23°C° 0 mm 1 mps 702 mmHg 61%
    08:00 +26°C° 0 mm 1 mps 703 mmHg 53%
    09:00 +29°C° 0 mm 1 mps 704 mmHg 44%
    10:00 +31°C° 0 mm 1 mps 703 mmHg 39%
    11:00 +33°C° 0 mm 1 mps 703 mmHg 33%
    12:00 +35°C° 0 mm 1 mps 703 mmHg 28%
    13:00 +36°C° 0 mm 2 mps 702 mmHg 29%
    14:00 +35°C° 0 mm 2 mps 702 mmHg 29%
    15:00 +35°C° 0 mm 2 mps 701 mmHg 30%
    16:00 +32°C° 0 mm 2 mps 701 mmHg 36%
    17:00 +30°C° 0 mm 2 mps 701 mmHg 43%
    18:00 +28°C° 0 mm 2 mps 701 mmHg 49%
    19:00 +26°C° 0 mm 2 mps 701 mmHg 54%
    20:00 +25°C° 0 mm 2 mps 702 mmHg 60%
    21:00 +23°C° 0 mm 2 mps 702 mmHg 65%
    22:00 +22°C° 0 mm 1 mps 702 mmHg 65%
    23:00 +22°C° 0 mm 1 mps 702 mmHg 65%
    Show more